2023/01/15 00:00:00,27.0, 3.9
2023/01/15 00:10:00,27.0, 3.8
2023/01/15 00:20:00,27.0, 3.5
2023/01/15 00:30:00,27.0, 3.9
2023/01/15 00:40:00,27.0, 3.8
2023/01/15 00:50:00,27.0, 3.9
2023/01/15 01:00:00,27.0, 4.1
2023/01/15 01:10:00,26.8, 4.3
2023/01/15 01:20:00,26.7, 4.1
2023/01/15 01:30:00,26.5, 4.1
2023/01/15 01:40:00,26.4, 4.2
2023/01/15 01:50:00,26.4, 4.2
2023/01/15 02:00:00,26.4, 3.8
2023/01/15 02:10:00,26.4, 4.2
2023/01/15 02:20:00,26.4, 3.9
2023/01/15 02:30:00,26.4, 4.1
2023/01/15 02:40:00,26.4, 4.0
2023/01/15 02:50:00,26.5, 4.1
2023/01/15 03:00:00,26.6, 3.8
2023/01/15 03:10:00,26.6, 3.5
2023/01/15 03:20:00,26.7, 3.8
2023/01/15 03:30:00,26.7, 3.8
2023/01/15 03:40:00,26.6, 3.8
2023/01/15 03:50:00,26.6, 4.0
2023/01/15 04:00:00,26.4, 3.6
2023/01/15 04:10:00,26.4, 3.6
2023/01/15 04:20:00,26.4, 3.8
2023/01/15 04:30:00,26.4, 3.8
2023/01/15 04:40:00,26.3, 3.5
2023/01/15 04:50:00,26.2, 3.6
2023/01/15 05:00:00,26.1, 3.8
2023/01/15 05:10:00,26.1, 3.6
2023/01/15 05:20:00,26.0, 3.4
2023/01/15 05:30:00,26.1, 3.4
2023/01/15 05:40:00,26.0, 3.6
2023/01/15 05:50:00,26.0, 3.8
2023/01/15 06:00:00,25.9, 3.4
2023/01/15 06:10:00,25.7, 3.4
2023/01/15 06:20:00,25.7, 3.4
2023/01/15 06:30:00,25.6, 3.5
2023/01/15 06:40:00,25.7, 3.4
2023/01/15 06:50:00,26.0, 3.8
2023/01/15 07:00:00,26.0, 3.5
2023/01/15 07:10:00,26.1, 3.7
2023/01/15 07:20:00,25.7, 3.8
2023/01/15 07:30:00,25.7, 3.7
2023/01/15 07:40:00,25.7, 4.1
2023/01/15 07:50:00,25.9, 3.8
2023/01/15 08:00:00,26.0, 3.9
2023/01/15 08:10:00,25.9, 4.3
2023/01/15 08:20:00,25.7, 4.6
2023/01/15 08:30:00,25.5, 4.7
2023/01/15 08:40:00,25.5, 4.8
2023/01/15 08:50:00,25.4, 5.0
2023/01/15 09:00:00,25.3, 5.3
2023/01/15 09:10:00,25.2, 5.2
2023/01/15 09:20:00,25.3, 5.6
2023/01/15 09:30:00,25.4, 6.3
2023/01/15 09:40:00,25.6, 7.9
2023/01/15 09:50:00,25.4, 8.5
2023/01/15 10:00:00,25.3, 8.5
2023/01/15 10:10:00,25.6, 8.4
2023/01/15 10:20:00,25.7, 8.6
2023/01/15 10:30:00,25.5, 9.1
2023/01/15 10:40:00,25.5, 8.6
2023/01/15 10:50:00,25.5, 8.3
2023/01/15 11:00:00,25.2, 9.1
2023/01/15 11:10:00,25.3,10.0
2023/01/15 11:20:00,25.5, 9.1
2023/01/15 11:30:00,25.1, 8.0
2023/01/15 11:40:00,25.0, 8.6
2023/01/15 11:50:00,24.7, 8.5
2023/01/15 12:00:00,24.5, 8.1
2023/01/15 12:10:00,24.5, 7.7
2023/01/15 12:20:00,24.4, 8.3
2023/01/15 12:30:00,24.3, 8.2
2023/01/15 12:40:00,24.2, 8.2
2023/01/15 12:50:00,24.2, 8.0
2023/01/15 13:00:00,24.1, 7.6
2023/01/15 13:10:00,24.0, 7.1
2023/01/15 13:20:00,24.1, 8.1
2023/01/15 13:30:00,24.2, 8.6
2023/01/15 13:40:00,24.2, 8.9
2023/01/15 13:50:00,24.1, 8.4
2023/01/15 14:00:00,24.1, 8.4
2023/01/15 14:10:00,24.0, 7.4
2023/01/15 14:20:00,23.9, 7.8
2023/01/15 14:30:00,24.0, 8.6
2023/01/15 14:40:00,24.0, 9.4
2023/01/15 14:50:00,23.8, 9.7
2023/01/15 15:00:00,23.6,14.2
2023/01/15 15:10:00,23.8,11.9
2023/01/15 15:20:00,23.8, 9.9
2023/01/15 15:30:00,23.7, 9.0
2023/01/15 15:40:00,23.7, 8.7
2023/01/15 15:50:00,23.6, 9.7
2023/01/15 16:00:00,23.5, 9.9
2023/01/15 16:10:00,23.4, 7.9
2023/01/15 16:20:00,23.2, 7.0
2023/01/15 16:30:00,23.1, 6.0
2023/01/15 16:40:00,23.1, 5.6
2023/01/15 16:50:00,23.1, 5.4
2023/01/15 17:00:00,23.0, 4.9
2023/01/15 17:10:00,23.1, 4.6
2023/01/15 17:20:00,22.9, 4.5
2023/01/15 17:30:00,22.8, 4.4
2023/01/15 17:40:00,22.7, 4.3
2023/01/15 17:50:00,22.6, 4.4
2023/01/15 18:00:00,22.6, 4.0
2023/01/15 18:10:00,22.6, 3.9
2023/01/15 18:20:00,22.6, 3.8
2023/01/15 18:30:00,22.6, 3.7
2023/01/15 18:40:00,22.6, 3.7
2023/01/15 18:50:00,22.6, 3.6
2023/01/15 19:00:00,22.5, 3.5
2023/01/15 19:10:00,22.5, 3.4
2023/01/15 19:20:00,22.6, 3.4
2023/01/15 19:30:00,22.7, 3.6
2023/01/15 19:40:00,22.6, 3.4
2023/01/15 19:50:00,22.6, 3.4
2023/01/15 20:00:00,22.6, 3.5
2023/01/15 20:10:00,22.6, 3.2
2023/01/15 20:20:00,22.7, 3.4
2023/01/15 20:30:00,22.8, 3.3
2023/01/15 20:40:00,22.7, 3.4
2023/01/15 20:50:00,22.8, 3.5
2023/01/15 21:00:00,22.7, 3.4
2023/01/15 21:10:00,22.7, 3.5
2023/01/15 21:20:00,22.6, 3.7
2023/01/15 21:30:00,22.5, 3.4
2023/01/15 21:40:00,22.5, 3.4
2023/01/15 21:50:00,22.4, 3.7
2023/01/15 22:00:00,22.4, 3.5
2023/01/15 22:10:00,22.4, 3.7
2023/01/15 22:20:00,22.3, 3.7
2023/01/15 22:30:00,22.2, 3.7
2023/01/15 22:40:00,22.1, 3.7
2023/01/15 22:50:00,22.1, 3.7
2023/01/15 23:00:00,22.2, 3.6
2023/01/15 23:10:00,22.1, 3.8
2023/01/15 23:20:00,22.1, 3.9
2023/01/15 23:30:00,22.1, 3.9
2023/01/15 23:40:00,22.1, 3.6
2023/01/15 23:50:00,22.2, 3.5
